TimeCET,TemperatureF,Dew PointF,Humidity,Sea Level PressureIn,VisibilityMPH,Wind Direction,Wind SpeedMPH,Gust SpeedMPH,PrecipitationIn,Events,Conditions,WindDirDegrees,DateUTC
12:00 AM,59.0,55.4,88,29.92,6.2,North,4.6,-,N/A,,Partly Cloudy,350,2012-11-18 23:00:00
12:30 AM,59.0,55.4,88,29.92,6.2,Calm,Calm,-,N/A,,Partly Cloudy,0,2012-11-18 23:30:00
1:00 AM,57,54,84,29.94,12,West,3.5,,,,Scattered Clouds,270,2012-11-19 00:00:00
1:00 AM,57.2,55.4,94,29.92,6.2,Variable,2.3,-,N/A,,Partly Cloudy,0,2012-11-19 00:00:00
1:30 AM,57.2,57.2,100,29.92,6.2,West,4.6,-,N/A,,Partly Cloudy,280,2012-11-19 00:30:00
2:00 AM,57.2,55.4,94,29.92,6.2,WNW,5.8,-,N/A,,Partly Cloudy,290,2012-11-19 01:00:00
2:30 AM,55.4,53.6,94,29.92,6.2,West,3.5,-,N/A,,Partly Cloudy,260,2012-11-19 01:30:00
3:00 AM,57.2,53.6,88,29.92,6.2,WNW,8.1,-,N/A,,Partly Cloudy,290,2012-11-19 02:00:00
3:30 AM,57.2,53.6,88,29.92,6.2,WNW,6.9,-,N/A,,Partly Cloudy,290,2012-11-19 02:30:00
4:00 AM,57.2,53.6,88,29.92,6.2,West,3.5,-,N/A,,Partly Cloudy,270,2012-11-19 03:00:00
4:30 AM,57.2,53.6,88,29.92,6.2,West,5.8,-,N/A,,Partly Cloudy,280,2012-11-19 03:30:00
5:00 AM,55.4,53.6,94,29.95,6.2,WSW,3.5,-,N/A,,Partly Cloudy,240,2012-11-19 04:00:00
5:30 AM,57.2,53.6,88,29.95,6.2,WSW,5.8,-,N/A,,Partly Cloudy,240,2012-11-19 04:30:00
6:00 AM,59.0,53.6,82,29.95,6.2,West,6.9,-,N/A,,Partly Cloudy,260,2012-11-19 05:00:00
6:30 AM,59.0,53.6,82,29.95,6.2,West,4.6,-,N/A,,Partly Cloudy,260,2012-11-19 05:30:00
7:00 AM,57,51,74,29.97,19,West,2.3,,,,Scattered Clouds,280,2012-11-19 06:00:00
7:00 AM,59.0,53.6,82,29.95,6.2,Variable,1.2,-,N/A,,Partly Cloudy,0,2012-11-19 06:00:00
7:30 AM,57.2,53.6,88,29.98,6.2,Calm,Calm,-,N/A,,Partly Cloudy,0,2012-11-19 06:30:00
8:00 AM,57.2,53.6,88,29.98,6.2,Variable,1.2,-,N/A,,Partly Cloudy,0,2012-11-19 07:00:00
9:00 AM,57.2,55.4,94,29.98,6.2,Variable,2.3,-,N/A,,Partly Cloudy,0,2012-11-19 08:00:00
9:30 AM,59.0,55.4,88,30.01,6.2,Variable,2.3,-,N/A,,Partly Cloudy,0,2012-11-19 08:30:00
10:30 AM,66.2,55.4,68,30.01,6.2,Variable,1.2,-,N/A,,Partly Cloudy,0,2012-11-19 09:30:00
11:00 AM,66.2,51.8,60,30.04,6.2,Variable,1.2,-,N/A,,Partly Cloudy,0,2012-11-19 10:00:00
11:30 AM,68.0,51.8,56,30.04,6.2,Calm,Calm,-,N/A,,Partly Cloudy,0,2012-11-19 10:30:00
12:00 PM,68.0,50.0,52,30.04,6.2,SSE,3.5,-,N/A,,Partly Cloudy,150,2012-11-19 11:00:00
12:30 PM,68.0,50.0,52,30.04,6.2,SE,4.6,-,N/A,,Partly Cloudy,140,2012-11-19 11:30:00
1:00 PM,69,53,47,30.02,31,SSE,4.6,,,,Scattered Clouds,160,2012-11-19 12:00:00
1:00 PM,69.8,55.4,60,30.01,6.2,SSE,3.5,-,N/A,,Partly Cloudy,160,2012-11-19 12:00:00
1:30 PM,68.0,53.6,60,30.01,6.2,South,4.6,-,N/A,,Partly Cloudy,170,2012-11-19 12:30:00
2:00 PM,68.0,53.6,60,30.01,6.2,South,6.9,-,N/A,,Partly Cloudy,180,2012-11-19 13:00:00
2:30 PM,68.0,53.6,60,30.01,6.2,South,8.1,-,N/A,,Partly Cloudy,180,2012-11-19 13:30:00
3:00 PM,68.0,51.8,56,30.01,6.2,South,8.1,-,N/A,,Partly Cloudy,170,2012-11-19 14:00:00
3:30 PM,66.2,51.8,60,30.01,6.2,South,9.2,-,N/A,,Partly Cloudy,170,2012-11-19 14:30:00
4:00 PM,66.2,53.6,64,30.01,6.2,South,6.9,-,N/A,,Partly Cloudy,170,2012-11-19 15:00:00
4:30 PM,64.4,55.4,73,30.01,6.2,South,5.8,-,N/A,,Partly Cloudy,170,2012-11-19 15:30:00
5:00 PM,64.4,55.4,73,30.01,6.2,South,5.8,-,N/A,,Partly Cloudy,180,2012-11-19 16:00:00
5:30 PM,62.6,57.2,82,30.04,6.2,Variable,1.2,-,N/A,,Partly Cloudy,0,2012-11-19 16:30:00
6:00 PM,62.6,57.2,82,30.04,6.2,Calm,Calm,-,N/A,,Partly Cloudy,0,2012-11-19 17:00:00
6:30 PM,60.8,57.2,88,30.04,-9999.0,Calm,Calm,-,N/A,,Clear,0,2012-11-19 17:30:00
7:00 PM,61,54,71,30.06,12,Calm,Calm,,,,Scattered Clouds,,2012-11-19 18:00:00
7:00 PM,60.8,57.2,88,30.04,-9999.0,Calm,Calm,-,N/A,,Clear,0,2012-11-19 18:00:00
7:30 PM,59.0,55.4,88,30.04,-9999.0,Variable,1.2,-,N/A,,Clear,0,2012-11-19 18:30:00
8:00 PM,59.0,55.4,88,30.06,-9999.0,Variable,1.2,-,N/A,,Clear,0,2012-11-19 19:00:00
8:30 PM,59.0,55.4,88,30.06,-9999.0,Calm,Calm,-,N/A,,Clear,0,2012-11-19 19:30:00
9:00 PM,57.2,55.4,94,30.06,-9999.0,Calm,Calm,-,N/A,,Clear,0,2012-11-19 20:00:00
9:30 PM,57.2,55.4,94,30.06,-9999.0,Variable,1.2,-,N/A,,Clear,0,2012-11-19 20:30:00
10:00 PM,55.4,53.6,94,30.06,-9999.0,Calm,Calm,-,N/A,,Clear,0,2012-11-19 21:00:00
10:30 PM,55.4,53.6,94,30.06,-9999.0,Variable,2.3,-,N/A,,Clear,0,2012-11-19 21:30:00
11:00 PM,55.4,53.6,94,30.06,-9999.0,Variable,2.3,-,N/A,,Clear,0,2012-11-19 22:00:00
11:30 PM,57.2,53.6,88,30.06,-9999.0,Variable,1.2,-,N/A,,Clear,0,2012-11-19 22:30:00